Location: New Plymouth
(39.0670°S, 174.0830°E)
Time: 21:31:05
(UTC+12:00)

NOAA 19 - Pass Details

Date: 21 August 2019
Orbit: 840 x 862 km, 99.2° (Epoch: 17 September)

Event Time Altitude Azimuth Distance (km) Brightness Sun altitude
Rises 03:17:51 0° 68° (ENE) 3,401 8.8 -43.8°
Reaches altitude 10° 03:21:28 10° 93° (E) 2,477 8.2 -43.2°
Maximum altitude 03:24:00 13° 121° (ESE) 2,244 8.0 -42.7°
Drops below altitude 10° 03:26:33 10° 149° (SSE) 2,493 8.1 -42.3°
Sets 03:30:13 0° 174° (S) 3,440 8.7 -41.6°
